[[{"header":{"parameterUnit":"m.s-1","parameterCategory":1,"la1":30.2992,"la2":30.254,"lo1":-89.0895,"lo2":-89.0443,"dy":0.0025,"dx":0.0025,"nx":19,"ny":19,"refTime":"2026-03-27T03:00:00:Z","depth":0,"parameterNumber":2,"parameterNumberName":"U-component_of_WINDS"},"data":[0,0,0,1.1033,1.1031,1.0937,1.0936,1.0813,1.0812,0,0,0,0,0,0,0,0,0,0,0,1.1058,1.1057,1.1033,1.103,1.0937,1.0936,1.0813,1.0812,0,0,0,0,0,0,0,0,0,0,0,1.1058,1.1057,1.1056,1.103,1.0937,1.0936,1.0813,1.0885,0,0,0,0,0,0,0,0,0,0,1.0977,1.0997,1.1057,1.1056,1.103,1.0937,1.0936,1.0889,1.0881,1.0854,0,1.0828,0,1.0818,1.0803,1.0803,0,0,0,1.1033,1.1004,1.0981,1.1056,1.1029,1.0937,1.098,1.0885,1.0875,1.0843,1.0826,1.0822,1.0816,1.0802,1.0802,1.0638,1.0637,0,0,1.1038,1.1039,1.0988,1.0975,1.0989,1.0983,1.0977,1.0879,1.0861,1.0826,1.0819,1.0814,1.0801,1.08,1.0639,1.0638,0,0,0,1.1051,1.1043,1.1023,1.098,1.0964,1.098,1.0973,1.0865,1.0859,1.0818,1.0812,1.0801,1.0799,1.064,1.0638,1.0598,0,0,0,1.1054,1.1051,1.1025,1.1025,1.0965,1.0913,1.0961,1.0866,1.0855,1.0813,1.0801,1.0798,1.0641,1.0639,1.0601,1.0579,0,0,0,1.1065,1.1052,1.1037,1.1025,1.0985,1.0915,1.0902,1.0863,1.0851,1.0803,1.0798,1.0641,1.0639,1.0604,1.0583,1.0537,0,0,0,1.1076,1.1001,1.1037,1.0951,1.0985,1.089,1.0903,1.0832,1.0786,1.08,1.0641,1.0639,1.0605,1.0586,1.054,1.0499,1.0482,0,0,1.0983,1.099,1.094,1.0969,1.0868,1.0905,1.0798,1.0754,1.0747,1.0675,1.0671,1.06,1.0584,1.0538,1.0384,1.0371,0,0,0,1.0911,1.0875,1.0848,1.0804,1.0769,1.0738,1.071,1.0694,1.0633,1.071,1.0571,1.0561,1.0534,1.0514,1.0503,1.048,1.0629,1.063,1.063,1.078,1.0778,1.0695,1.0682,1.0639,1.0613,1.0579,1.0553,1.0561,1.0528,1.0507,1.0414,1.0391,1.0382,1.0359,1.0484,1.0484,1.0484,1.0484,1.0644,1.0594,1.0609,1.0534,1.0533,1.047,1.0442,1.0451,1.0393,1.0429,1.0405,1.0446,1.0367,1.0347,1.0481,1.0481,1.0482,1.0482,1.0482,1.0559,1.0534,1.0517,1.0455,1.0408,1.0398,1.0342,1.0342,1.0341,1.0318,1.0296,1.0297,1.0299,1.0308,1.0307,1.0307,1.0307,1.0306,1.0306,1.0477,1.0459,1.0412,1.0371,1.0345,1.0309,1.0284,1.0257,1.0228,1.0233,1.0233,1.0246,1.036,1.0389,1.0301,1.0302,1.0303,1.0303,1.0304,1.0341,1.0372,1.03,1.0274,1.0227,1.0181,1.0182,1.013,1.0108,1.0081,1.01,1.0184,1.0192,1.0201,1.0225,1.01,1.01,1.01,1.01,1.027,1.0274,1.0202,1.016,1.0119,1.0113,1.0034,1.0014,0.9998,0.9985,1.0003,1.0035,1.0044,1.0046,1.0059,1.0082,0.9922,0.9922,0.9922,1.0186,1.0187,1.0119,1.0105,1.0069,1.0038,0.9963,0.9915,0.9904,0.9915,0.9975,0.9982,1.0034,1.0051,1.0063,1.0082,1.0124,0,0]},{"header":{"parameterUnit":"m.s-1","parameterCategory":1,"la1":30.2992,"la2":30.254,"lo1":-89.0895,"lo2":-89.0443,"dy":0.0025,"dx":0.0025,"nx":19,"ny":19,"refTime":"2026-03-27T03:00:00:Z","depth":0,"parameterNumber":3,"parameterNumberName":"V-component_of_WINDS"},"data":[0,0,0,0.9119,0.9121,0.9221,0.9221,0.934,0.9341,0,0,0,0,0,0,0,0,0,0,0,0.9086,0.9087,0.9118,0.9121,0.9221,0.9221,0.934,0.9341,0,0,0,0,0,0,0,0,0,0,0,0.9086,0.9087,0.9087,0.9121,0.9221,0.9222,0.934,0.9267,0,0,0,0,0,0,0,0,0,0,0.9171,0.9139,0.9086,0.9087,0.9122,0.9221,0.9222,0.9264,0.9272,0.9291,0,0.931,0,0.9327,0.9349,0.9349,0,0,0,0.9123,0.9133,0.9162,0.9088,0.9123,0.9221,0.9176,0.9268,0.9277,0.9302,0.9312,0.9317,0.9329,0.9349,0.935,0.9456,0.9457,0,0,0.9118,0.9103,0.9156,0.9167,0.9154,0.9173,0.918,0.9274,0.9284,0.9313,0.932,0.9331,0.935,0.9351,0.9456,0.9456,0,0,0,0.91,0.9099,0.9126,0.9162,0.9181,0.9176,0.9183,0.9279,0.9289,0.9321,0.9333,0.9351,0.9352,0.9456,0.9456,0.9459,0,0,0,0.9097,0.9089,0.9123,0.9115,0.9179,0.9232,0.9187,0.9283,0.9294,0.9332,0.9351,0.9353,0.9455,0.9456,0.9458,0.9464,0,0,0,0.9081,0.9087,0.91,0.9114,0.9157,0.9231,0.9247,0.9286,0.9301,0.9349,0.9354,0.9455,0.9456,0.9457,0.9462,0.9484,0,0,0,0.9059,0.9105,0.91,0.9155,0.9156,0.9232,0.9246,0.9304,0.9346,0.9351,0.9455,0.9456,0.9457,0.9462,0.9483,0.95,0.9506,0,0,0.9109,0.9111,0.9144,0.9142,0.9215,0.9218,0.9291,0.9345,0.9363,0.9423,0.9426,0.9458,0.9462,0.9484,0.9544,0.9548,0,0,0,0.9154,0.9178,0.92,0.9238,0.9278,0.9311,0.9354,0.9372,0.9423,0.9392,0.9473,0.9476,0.9489,0.9498,0.9502,0.9512,0.946,0.9459,0.9459,0.9206,0.9223,0.9277,0.9305,0.9341,0.9381,0.941,0.9441,0.9453,0.947,0.9489,0.9523,0.9532,0.9535,0.9546,0.95,0.95,0.95,0.95,0.9278,0.9313,0.9319,0.9374,0.9391,0.9437,0.9473,0.9478,0.9521,0.9513,0.9525,0.9514,0.954,0.955,0.95,0.95,0.95,0.95,0.95,0.9313,0.9332,0.9351,0.9402,0.9438,0.9464,0.9502,0.9517,0.9532,0.9544,0.9562,0.9562,0.9562,0.9551,0.9552,0.9552,0.9552,0.9552,0.9552,0.9342,0.9363,0.9394,0.9434,0.9455,0.9486,0.952,0.9542,0.9569,0.9577,0.9577,0.9583,0.9539,0.9527,0.9554,0.9554,0.9553,0.9553,0.9553,0.9408,0.9394,0.9442,0.9463,0.9507,0.9538,0.9554,0.9595,0.9615,0.9632,0.9633,0.9599,0.9602,0.96,0.959,0.9631,0.9631,0.9631,0.9631,0.9437,0.9438,0.9487,0.9519,0.9552,0.9569,0.9617,0.9641,0.9664,0.9676,0.9671,0.9659,0.9655,0.9661,0.9657,0.9648,0.9703,0.9703,0.9703,0.9477,0.9481,0.9521,0.9542,0.9575,0.9601,0.9646,0.968,0.9703,0.9706,0.9684,0.9681,0.9662,0.9655,0.9661,0.9654,0.9638,0,0]}]]